Find Starlink 5923

NORAD ID: 56489 Int'l Des: 2023-064 Owner: SPXS Country: US Constellation: starlink operational
LEOCIRCULAR

現在のビュー

3D地球を読み込み中...

Starlink 5923について

説明を読み込み中...

次回通過

Passes for default location (London). Set your location on the main map for personalized predictions.

高度履歴

Loading altitude history...

軌道要素

1 56489U 23064AT 26150.41554212 .00002710 00000-0 23490-3 0 9996
2 56489 69.9984 258.4144 0003529 275.6582 84.4175 14.98322927168473
Epoch: May 30, 2026 • Age: 9 hours

現在のステータス

高度 574.5 km
速度 7.57 km/s
衛星直下点 11.95°N, 96.12°W
打ち上げ日 May 10, 2023
運用期間 3 years
タイプ internet

技術仕様

分類 Payload
質量 305.00 kg
乾燥質量 290.00 kg
総質量 305.00 kg
長さ 0.20 m
直径 2.80 m
スパン 9.00 m
形状 Box + pan
製造者 SPXS
バスタイプ Starlink
フェーズステータス In Orbit
所有者/国 SPXS/US

Most Searched